Location: Unspecified
(51.0950°N, 12.9690°E)
Time: 22:48:23
(UTC+00:00)

Okean-O - Pass Details

Date: 28 October 2021
Orbit: 638 x 640 km, 98.2° (Epoch: 01 December)

Event Time Altitude Azimuth Distance (km) Brightness Sun altitude
Exits shadow 18:00:14 48° 134° (SE) 840 2.9 -21.1°
Maximum altitude 18:01:19 68° 72° (ENE) 694 2.5 -21.2°
Drops below altitude 10° 18:05:45 10° 350° (N) 2,045 5.4 -21.9°
Sets 18:07:58 0° 348° (NNW) 2,959 6.3 -22.3°
